FW2486 Weather Reports


Display with metric or nautical units.
time (UTC)temp
F
wind
direction
speed
MPH
gust
MPH
rain 1hr
in
rain 24hr
in
rain mn
in
humidity
%
barometer
mb
20260505091535 61 181 7.0 21.0 0.00 0.00 0.00 73 1015.1
20260505090030 61 183 6.0 19.0 0.00 0.00 0.00 72 1015.1
20260505084606 0 0 0.0 0.0 0.00 0.00 0.00 100
20260505083035 62 195 6.0 18.0 0.00 0.00 0.00 72 1014.8
20260505080036 62 181 5.0 13.0 0.00 0.00 0.00 72 1014.8
20260505074535 62 169 6.0 12.0 0.00 0.00 0.00 72 1014.8
20260505073036 63 181 6.0 17.0 0.00 0.00 0.00 72 1014.7
20260505071608 62 175 5.0 12.0 0.00 0.00 0.00 72 1014.6
20260505070031 62 156 5.0 11.0 0.00 0.00 0.00 71 1014.5
20260505064534 63 142 4.0 9.0 0.00 0.00 0.00 71 1014.4
20260505063033 0 0 0.0 0.0 0.00 0.00 0.00 100
20260505061535 0 0 0.0 0.0 0.00 0.00 0.00 100
20260505060036 63 159 3.0 10.0 0.00 0.00 0.00 67 1014.6
20260505054607 64 168 4.0 11.0 0.00 0.00 0.00 66 1014.5
20260505051537 64 187 7.0 15.0 0.00 0.00 0.00 64 1014.4
20260505041536 65 173 6.0 19.0 0.00 0.00 0.00 58 1013.9
20260505040048 67 178 4.0 6.0 0.00 0.00 0.00 54 1013.6
20260505034534 67 192 7.0 20.0 0.00 0.00 0.00 52 1013.3
20260505033030 68 197 8.0 18.0 0.00 0.00 0.00 50 1013.1
20260505031533 68 194 6.0 11.0 0.00 0.00 0.00 48 1012.9
20260505030037 69 192 4.0 12.0 0.00 0.00 0.00 47 1012.7
20260505024533 71 185 6.0 15.0 0.00 0.00 0.00 46 1012.5
20260505023030 72 187 5.0 12.0 0.00 0.00 0.00 46 1012.4
20260505021532 73 205 6.0 15.0 0.00 0.00 0.00 45 1012.4
20260505020036 74 197 8.0 17.0 0.00 0.00 0.00 43 1012.3
20260505014537 75 216 5.0 14.0 0.00 0.00 0.00 42 1012.2
20260505013033 76 207 5.0 16.0 0.00 0.00 0.00 41 1012.1
20260505011533 76 221 5.0 15.0 0.00 0.00 0.00 40 1012.1
20260505010037 77 225 7.0 14.0 0.00 0.00 0.00 38 1012.1
20260505004534 78 215 6.0 11.0 0.00 0.00 0.00 37 1012.1
20260505003032 79 224 6.0 15.0 0.00 0.00 0.00 35 1012.0
20260505001535 80 225 6.0 13.0 0.00 0.00 0.00 35 1011.9
20260505000042 80 234 7.0 20.0 0.00 0.00 0.00 34 1012.0
20260504233033 82 221 5.0 12.0 0.00 0.00 0.00 34 1011.8
20260504231534 82 229 8.0 14.0 0.00 0.00 0.00 33 1011.8
20260504230107 82 199 7.0 17.0 0.00 0.00 0.00 32 1011.8
20260504224536 83 195 5.0 13.0 0.00 0.00 0.00 32 1011.8
20260504223032 83 206 6.0 14.0 0.00 0.00 0.00 32 1011.9
20260504221642 83 232 7.0 11.0 0.00 0.00 0.00 32 1012.0
20260504220031 83 239 3.0 10.0 0.00 0.00 0.00 31 1012.0
20260504214536 83 202 6.0 16.0 0.00 0.00 0.00 31 1012.1
20260504213036 83 211 6.0 18.0 0.00 0.00 0.00 32 1012.2
20260504211537 83 208 7.0 19.0 0.00 0.00 0.00 32 1012.2
20260504210107 83 199 7.0 16.0 0.00 0.00 0.00 32 1012.3
20260504204535 83 198 7.0 12.0 0.00 0.00 0.00 33 1012.2
20260504203034 83 194 7.0 16.0 0.00 0.00 0.00 33 1012.3
20260504201534 82 198 6.0 12.0 0.00 0.00 0.00 35 1012.5
20260504200037 82 198 8.0 17.0 0.00 0.00 0.00 35 1012.5
20260504194536 82 231 4.0 14.0 0.00 0.00 0.00 36 1012.6
20260504191534 79 315 3.0 9.0 0.00 0.00 0.00 44 1012.8
20260504190037 77 350 5.0 10.0 0.00 0.00 0.00 48 1012.9
20260504184536 75 326 5.0 10.0 0.00 0.00 0.00 53 1013.0
20260504183036 73 331 5.0 10.0 0.00 0.00 0.00 55 1013.1
20260504181534 72 336 6.0 12.0 0.00 0.00 0.00 56 1013.1
20260504174536 70 339 5.0 9.0 0.00 0.00 0.00 58 1013.3
20260504171530 69 344 6.0 12.0 0.00 0.00 0.00 59 1013.4
20260504110106 47 138 14.0 48.0 0.00 0.00 0.00 86 1013.1